TimeEDT,TemperatureF,Dew PointF,Humidity,Sea Level PressureIn,VisibilityMPH,Wind Direction,Wind SpeedMPH,Gust SpeedMPH,PrecipitationIn,Events,Conditions,WindDirDegrees,DateUTC
12:15 AM,46.0,45.1,97,30.29,1.0,Calm,Calm,-,N/A,,Overcast,0,2013-09-29 04:15:00
12:35 AM,46.0,45.5,98,30.28,0.8,Calm,Calm,-,N/A,,Overcast,0,2013-09-29 04:35:00
12:55 AM,46.4,45.5,97,30.28,0.2,Calm,Calm,-,N/A,Fog,Fog,0,2013-09-29 04:55:00
1:15 AM,46.2,45.5,97,30.28,0.2,Calm,Calm,-,N/A,Fog,Fog,0,2013-09-29 05:15:00
1:35 AM,46.0,45.5,98,30.28,0.5,Calm,Calm,-,N/A,Fog,Fog,0,2013-09-29 05:35:00
1:55 AM,45.7,45.1,98,30.27,0.2,Calm,Calm,-,N/A,Fog,Fog,0,2013-09-29 05:55:00
2:15 AM,45.7,45.1,98,30.27,0.5,Calm,Calm,-,N/A,Fog,Fog,0,2013-09-29 06:15:00
2:35 AM,45.9,45.5,99,30.27,0.2,Calm,Calm,-,N/A,Fog,Fog,0,2013-09-29 06:35:00
2:55 AM,45.7,45.1,98,30.27,0.2,Calm,Calm,-,N/A,Fog,Fog,0,2013-09-29 06:55:00
3:15 AM,45.9,45.5,99,30.26,0.5,Calm,Calm,-,N/A,Fog,Fog,0,2013-09-29 07:15:00
3:35 AM,45.5,44.8,97,30.26,0.2,Calm,Calm,-,N/A,Fog,Fog,0,2013-09-29 07:35:00
3:55 AM,45.5,45.0,98,30.26,0.2,Calm,Calm,-,N/A,Fog,Fog,0,2013-09-29 07:55:00
4:15 AM,45.5,44.8,97,30.26,0.2,Calm,Calm,-,N/A,Fog,Fog,0,2013-09-29 08:15:00
4:35 AM,45.5,45.0,98,30.25,0.2,Calm,Calm,-,N/A,Fog,Fog,0,2013-09-29 08:35:00
4:55 AM,45.5,45.0,98,30.24,0.5,Calm,Calm,-,N/A,Fog,Fog,0,2013-09-29 08:55:00
5:15 AM,45.7,45.1,98,30.25,0.2,Calm,Calm,-,N/A,Fog,Fog,0,2013-09-29 09:15:00
5:35 AM,45.5,45.0,98,30.25,0.5,Calm,Calm,-,N/A,Fog,Fog,0,2013-09-29 09:35:00
5:55 AM,45.5,45.0,98,30.25,0.2,Calm,Calm,-,N/A,Fog,Fog,0,2013-09-29 09:55:00
6:15 AM,45.5,44.8,97,30.25,0.2,Calm,Calm,-,N/A,Fog,Fog,0,2013-09-29 10:15:00
6:35 AM,45.5,45.0,98,30.25,0.5,Calm,Calm,-,N/A,Fog,Fog,0,2013-09-29 10:35:00
6:55 AM,45.5,45.0,98,30.24,0.2,Calm,Calm,-,N/A,Fog,Fog,0,2013-09-29 10:55:00
7:15 AM,45.5,44.8,97,30.24,0.2,Calm,Calm,-,N/A,Fog,Fog,0,2013-09-29 11:15:00
7:35 AM,45.5,45.0,98,30.24,0.2,Calm,Calm,-,N/A,Fog,Fog,0,2013-09-29 11:35:00
7:55 AM,45.5,44.8,97,30.24,0.2,Calm,Calm,-,N/A,Fog,Fog,0,2013-09-29 11:55:00
8:15 AM,45.7,45.3,99,30.24,0.2,Calm,Calm,-,N/A,Fog,Fog,0,2013-09-29 12:15:00
8:35 AM,46.2,45.7,98,30.24,0.2,Calm,Calm,-,N/A,Fog,Fog,0,2013-09-29 12:35:00
8:55 AM,46.4,45.9,98,30.24,0.2,Calm,Calm,-,N/A,Fog,Fog,0,2013-09-29 12:55:00
9:15 AM,46.8,46.4,99,30.24,0.2,Calm,Calm,-,N/A,Fog,Fog,0,2013-09-29 13:15:00
9:35 AM,47.3,46.6,97,30.24,0.2,Calm,Calm,-,N/A,Fog,Fog,0,2013-09-29 13:35:00
9:55 AM,48.2,47.5,97,30.24,0.2,Calm,Calm,-,N/A,Fog,Fog,0,2013-09-29 13:55:00
10:15 AM,48.6,47.8,97,30.24,0.5,Calm,Calm,-,N/A,Fog,Fog,0,2013-09-29 14:15:00
10:35 AM,49.8,49.3,98,30.23,1.8,Calm,Calm,-,N/A,,Overcast,0,2013-09-29 14:35:00
10:55 AM,52.2,51.4,97,30.22,10.0,Calm,Calm,-,N/A,,Mostly Cloudy,0,2013-09-29 14:55:00
11:15 AM,54.9,54.1,97,30.21,10.0,Calm,Calm,-,N/A,,Clear,0,2013-09-29 15:15:00
11:35 AM,57.7,56.8,97,30.20,10.0,Calm,Calm,-,N/A,,Clear,0,2013-09-29 15:35:00
11:55 AM,60.6,59.4,96,30.19,10.0,East,3.5,-,N/A,,Clear,80,2013-09-29 15:55:00
12:15 PM,65.7,55.9,71,30.19,10.0,East,5.8,-,N/A,,Clear,90,2013-09-29 16:15:00
12:35 PM,67.1,54.3,63,30.18,10.0,Calm,Calm,-,N/A,,Clear,0,2013-09-29 16:35:00
12:55 PM,67.6,54.0,61,30.17,10.0,Calm,Calm,-,N/A,,Clear,0,2013-09-29 16:55:00
1:15 PM,69.8,52.0,53,30.16,10.0,SSE,3.5,-,N/A,,Scattered Clouds,160,2013-09-29 17:15:00
1:35 PM,70.2,48.4,46,30.15,10.0,ESE,4.6,-,N/A,,Scattered Clouds,120,2013-09-29 17:35:00
1:55 PM,69.8,49.3,48,30.15,10.0,ESE,5.8,-,N/A,,Clear,120,2013-09-29 17:55:00
2:15 PM,70.3,50.5,49,30.15,10.0,East,5.8,-,N/A,,Scattered Clouds,100,2013-09-29 18:15:00
2:35 PM,71.1,49.8,47,30.14,10.0,East,6.9,-,N/A,,Scattered Clouds,100,2013-09-29 18:35:00
2:55 PM,70.3,47.3,44,30.14,10.0,ESE,4.6,-,N/A,,Clear,110,2013-09-29 18:55:00
3:15 PM,70.9,47.3,43,30.13,10.0,ESE,3.5,-,N/A,,Clear,110,2013-09-29 19:15:00
3:35 PM,70.7,47.3,43,30.12,10.0,ESE,8.1,-,N/A,,Clear,110,2013-09-29 19:35:00
3:55 PM,70.3,48.2,45,30.12,10.0,ESE,5.8,-,N/A,,Clear,120,2013-09-29 19:55:00
4:15 PM,70.0,47.5,45,30.11,10.0,ESE,4.6,-,N/A,,Clear,110,2013-09-29 20:15:00
4:35 PM,69.8,48.9,47,30.10,10.0,SE,4.6,-,N/A,,Clear,130,2013-09-29 20:35:00
4:55 PM,69.1,47.3,46,30.10,10.0,ESE,3.5,-,N/A,,Clear,120,2013-09-29 20:55:00
5:15 PM,68.5,47.3,47,30.10,10.0,ESE,3.5,-,N/A,,Clear,110,2013-09-29 21:15:00
5:35 PM,68.0,46.9,47,30.10,10.0,Calm,Calm,-,N/A,,Clear,0,2013-09-29 21:35:00
5:55 PM,65.3,50.9,60,30.10,10.0,Calm,Calm,-,N/A,,Clear,0,2013-09-29 21:55:00
6:15 PM,60.4,50.7,70,30.10,10.0,Calm,Calm,-,N/A,,Clear,0,2013-09-29 22:15:00
6:35 PM,57.2,50.9,79,30.11,10.0,Calm,Calm,-,N/A,,Clear,0,2013-09-29 22:35:00
6:55 PM,54.9,50.9,86,30.10,10.0,Calm,Calm,-,N/A,,Clear,0,2013-09-29 22:55:00
7:15 PM,52.9,49.8,89,30.10,10.0,Calm,Calm,-,N/A,,Clear,0,2013-09-29 23:15:00
7:35 PM,52.0,49.6,92,30.10,10.0,Calm,Calm,-,N/A,,Clear,0,2013-09-29 23:35:00
7:55 PM,50.4,48.6,94,30.12,10.0,Calm,Calm,-,N/A,,Clear,0,2013-09-29 23:55:00
8:15 PM,50.2,48.6,94,30.12,10.0,Calm,Calm,-,N/A,,Clear,0,2013-09-30 00:15:00
8:35 PM,49.1,47.7,95,30.12,10.0,Calm,Calm,-,N/A,,Clear,0,2013-09-30 00:35:00
8:55 PM,48.7,47.5,95,30.13,10.0,Calm,Calm,-,N/A,,Clear,0,2013-09-30 00:55:00
9:15 PM,48.4,47.1,95,30.13,10.0,Calm,Calm,-,N/A,,Clear,0,2013-09-30 01:15:00
9:35 PM,47.1,46.0,96,30.13,5.0,Calm,Calm,-,N/A,,Clear,0,2013-09-30 01:35:00
9:55 PM,47.5,46.6,97,30.14,5.0,Calm,Calm,-,N/A,,Clear,0,2013-09-30 01:55:00
10:15 PM,46.4,45.5,97,30.14,1.0,Calm,Calm,-,N/A,,Mist,0,2013-09-30 02:15:00
10:35 PM,45.9,45.3,98,30.14,3.0,Calm,Calm,-,N/A,,Clear,0,2013-09-30 02:35:00
10:55 PM,45.1,44.6,98,30.14,0.8,Calm,Calm,-,N/A,,Mist,0,2013-09-30 02:55:00
11:15 PM,44.2,43.5,97,30.14,3.0,Calm,Calm,-,N/A,,Clear,0,2013-09-30 03:15:00
11:35 PM,44.1,43.7,99,30.13,2.0,Calm,Calm,-,N/A,,Clear,0,2013-09-30 03:35:00
11:55 PM,42.8,42.3,98,30.14,2.0,Calm,Calm,-,N/A,,Scattered Clouds,0,2013-09-30 03:55:00